Weather History for Novato, CA

Change the Weather History Date:

Saturday, January 11, 2014

  Actual Average (KAPC) Record (KAPC)
Temperature  
Mean Temperature 48 °F 46 °F  
Max Temperature 57 °F 55 °F 66 °F (2012)
Min Temperature 39 °F 37 °F 24 °F (2007)
Degree Days  
Heating Degree Days 17    
Month to date heating degree days  
Since 1 July heating degree days  
Cooling Degree Days 0    
Month to date cooling degree days  
Year to date cooling degree days  
Moisture  
Dew Point 46 °F    
Average Humidity 95    
Maximum Humidity 100    
Minimum Humidity 72    
Precipitation  
Precipitation 0.00 in - 4.77 in (1979)
Month to date precipitation  
Year to date precipitation  
Since 1 July precipitation  
Sea Level Pressure  
Sea Level Pressure 30.22 in    
Wind  
Wind Speed 3 mph (West)    
Max Wind Speed 16 mph    
Max Gust Speed 21 mph    
Visibility 8 miles    
Events Fog    
T = Trace of Precipitation, MM = Missing Value Source: NWS Daily Summary

Daily Weather History Graph

Daily Weather History Graph

Search for Another Location

Airport:

Trip Planner

Search our weather history database for the weather conditions in past years. The results will help you decide how hot, cold, wet, or windy it might be!

Date:

Astronomy

Jan. 11, 2014 Rise Set
Actual Time 7:26 AM PST 5:10 PM PST
Civil Twilight 6:57 AM PST 5:39 PM PST
Nautical Twilight 6:24 AM PST 6:12 PM PST
Astronomical Twilight 5:52 AM PST 6:43 PM PST
Moon 1:57 PM PST (1/11) 3:37 AM PST (1/11)
Length of Visible Light 10h 42m
Length of Day
9h 43m
Waxing Gibbous, 84% of the Moon is Illuminated
Jan 11
Waxing Gibbous
Jan 15
Full
Jan 23
Last Quarter
Jan 30
New
Feb 6
First Quarter

Hourly Weather History & Observations

Time (PST) Temp. Windchill Dew Point Humidity Pressure Visibility Wind Dir Wind Speed Gust Speed Precip Events Conditions
12:15 AM 39.2 °F - 39.2 °F 100% 30.21 in 3.0 mi Calm Calm - N/A   Clear
12:35 AM 39.2 °F - 39.2 °F 100% 30.21 in 6.0 mi Calm Calm - N/A   Partly Cloudy
12:55 AM 39.2 °F - 39.2 °F 100% 30.21 in 8.0 mi Calm Calm - N/A   Clear
1:15 AM 39.2 °F - 39.2 °F 100% 30.21 in 10.0 mi Calm Calm - N/A   Scattered Clouds
1:35 AM 41.0 °F - 41.0 °F 100% 30.20 in 8.0 mi Calm Calm - N/A   Overcast
1:55 AM 41.0 °F - 41.0 °F 100% 30.20 in 10.0 mi Calm Calm - N/A   Overcast
2:15 AM 41.0 °F - 41.0 °F 100% 30.21 in 3.0 mi Calm Calm - N/A   Scattered Clouds
2:35 AM 39.2 °F - 39.2 °F 100% 30.21 in 3.0 mi Calm Calm - N/A   Clear
2:55 AM 41.0 °F - 41.0 °F 100% 30.21 in 10.0 mi Calm Calm - N/A   Clear
3:15 AM 41.0 °F - 41.0 °F 100% 30.21 in 0.8 mi Calm Calm - N/A   Mostly Cloudy
3:35 AM 41.0 °F - 41.0 °F 100% 30.20 in 0.5 mi Calm Calm - N/A Fog Fog
3:55 AM 39.2 °F - 39.2 °F 100% 30.20 in 3.0 mi Calm Calm - N/A   Clear
4:15 AM 39.2 °F - 39.2 °F 100% 30.21 in 0.2 mi Calm Calm - N/A Fog Fog
4:35 AM 39.2 °F 33.0 °F 39.2 °F 100% 30.22 in 5.0 mi North 9.2 mph - N/A   Mostly Cloudy
4:55 AM 41.0 °F 39.0 °F 41.0 °F 100% 30.22 in 10.0 mi East 3.5 mph - N/A   Overcast
5:15 AM 42.8 °F 40.1 °F 42.8 °F 100% 30.22 in 10.0 mi North 4.6 mph - N/A   Overcast
5:35 AM 41.0 °F - 41.0 °F 100% 30.22 in 10.0 mi Calm Calm - N/A   Overcast
5:55 AM 42.8 °F - 42.8 °F 100% 30.22 in 10.0 mi Calm Calm - N/A   Overcast
6:15 AM 44.6 °F - 44.6 °F 100% 30.23 in 10.0 mi Calm Calm - N/A   Overcast
6:35 AM 44.6 °F - 44.6 °F 100% 30.22 in 10.0 mi Calm Calm - N/A   Overcast
6:55 AM 44.6 °F - 44.6 °F 100% 30.22 in 10.0 mi Calm Calm - N/A   Unknown
7:15 AM 44.6 °F - 44.6 °F 100% 30.22 in 10.0 mi Calm Calm - N/A   Unknown
7:35 AM 44.6 °F - 44.6 °F 100% 30.23 in 10.0 mi Calm Calm - N/A   Unknown
7:55 AM 44.6 °F - 44.6 °F 100% 30.22 in 10.0 mi Calm Calm - N/A   Unknown
8:15 AM 44.6 °F - 44.6 °F 100% 30.22 in 10.0 mi Calm Calm - N/A   Unknown
8:35 AM 46.4 °F - 46.4 °F 100% 30.24 in 10.0 mi Calm Calm - N/A   Unknown
8:55 AM 46.4 °F - 46.4 °F 100% 30.23 in 10.0 mi Calm Calm - N/A   Unknown
9:15 AM 46.4 °F - 46.4 °F 100% 30.21 in 10.0 mi Calm Calm - N/A   Unknown
9:35 AM 48.2 °F - 48.2 °F 100% 30.21 in 10.0 mi SE 5.8 mph - N/A   Unknown
9:55 AM 48.2 °F - 48.2 °F 100% 30.26 in 10.0 mi NNW 5.8 mph - N/A   Unknown
10:15 AM 50.0 °F - 50.0 °F 100% 30.26 in 10.0 mi North 3.5 mph - N/A   Unknown
10:35 AM 50.0 °F - 50.0 °F 100% 30.25 in 10.0 mi NNE 3.5 mph - N/A   Unknown
10:55 AM 51.8 °F - 50.0 °F 94% 30.25 in 10.0 mi SE 3.5 mph - N/A   Unknown
11:15 AM 51.8 °F - 51.8 °F 100% 30.24 in 10.0 mi Calm Calm - N/A   Unknown
11:35 AM 53.6 °F - 51.8 °F 94% 30.23 in 10.0 mi ESE 4.6 mph - N/A   Unknown
11:55 AM 53.6 °F - 51.8 °F 94% 30.22 in 7.0 mi ESE 4.6 mph - N/A   Unknown
12:15 PM 53.6 °F - 53.6 °F 100% 30.21 in 2.0 mi Calm Calm - N/A   Mist
12:35 PM 53.6 °F - 53.6 °F 100% 30.19 in 2.0 mi Calm Calm - N/A   Mist
12:55 PM 53.6 °F - 53.6 °F 100% 30.18 in 5.0 mi SW 3.5 mph - N/A   Mist
1:15 PM 55.4 °F - 55.4 °F 100% 30.17 in 7.0 mi SSW 8.1 mph - N/A   Unknown
1:35 PM 55.4 °F - 55.4 °F 100% 30.16 in 4.0 mi WSW 12.7 mph - N/A   Mist
1:55 PM 55.4 °F - 55.4 °F 100% 30.15 in 3.0 mi WSW 15.0 mph - N/A   Mist
2:15 PM 55.4 °F - 55.4 °F 100% 30.16 in 2.5 mi WSW 16.1 mph - N/A   Mist
2:35 PM 55.4 °F - 55.4 °F 100% 30.16 in 4.0 mi WSW 12.7 mph 19.6 mph N/A   Mist
2:55 PM 55.4 °F - 53.6 °F 94% 30.17 in 10.0 mi WSW 12.7 mph 17.3 mph N/A   Unknown
3:15 PM 57.2 °F - 50.0 °F 77% 30.17 in 10.0 mi West 8.1 mph - N/A   Unknown
3:35 PM 57.2 °F - 50.0 °F 77% 30.17 in 10.0 mi West 10.4 mph - N/A   Unknown
3:55 PM 57.2 °F - 48.2 °F 72% 30.18 in 10.0 mi WNW 10.4 mph - N/A   Clear
4:15 PM 55.4 °F - 48.2 °F 77% 30.19 in 10.0 mi West 8.1 mph - N/A   Clear
4:35 PM 55.4 °F - 48.2 °F 77% 30.19 in 10.0 mi West 8.1 mph - N/A   Clear
4:55 PM 53.6 °F - 48.2 °F 82% 30.20 in 10.0 mi WNW 5.8 mph - N/A   Clear
5:15 PM 53.6 °F - 46.4 °F 77% 30.20 in 10.0 mi West 9.2 mph - N/A   Clear
5:35 PM 53.6 °F - 46.4 °F 77% 30.20 in 10.0 mi West 9.2 mph - N/A   Clear
5:55 PM 53.6 °F - 46.4 °F 77% 30.21 in 10.0 mi West 13.8 mph 19.6 mph N/A   Clear
6:15 PM 53.6 °F - 48.2 °F 82% 30.21 in 10.0 mi West 9.2 mph 16.1 mph N/A   Clear
6:35 PM 53.6 °F - 48.2 °F 82% 30.22 in 10.0 mi West 6.9 mph - N/A   Clear
6:55 PM 53.6 °F - 48.2 °F 82% 30.22 in 10.0 mi West 10.4 mph - N/A   Clear
7:15 PM 53.6 °F - 48.2 °F 82% 30.24 in 10.0 mi West 6.9 mph - N/A   Partly Cloudy
7:35 PM 53.6 °F - 48.2 °F 82% 30.24 in 10.0 mi WNW 8.1 mph - N/A   Scattered Clouds
7:55 PM 53.6 °F - 48.2 °F 82% 30.23 in 10.0 mi West 9.2 mph 16.1 mph N/A   Scattered Clouds
8:15 PM 53.6 °F - 48.2 °F 82% 30.24 in 10.0 mi West 13.8 mph - N/A   Partly Cloudy
8:35 PM 53.6 °F - 48.2 °F 82% 30.25 in 10.0 mi West 13.8 mph 20.7 mph N/A   Clear
8:55 PM 48.2 °F - 46.4 °F 93% 30.26 in 10.0 mi East 4.6 mph - N/A   Clear
9:15 PM 46.4 °F - 46.4 °F 100% 30.27 in 10.0 mi Calm Calm - N/A   Clear
9:35 PM 46.4 °F - 46.4 °F 100% 30.28 in 9.0 mi Calm Calm - N/A   Partly Cloudy
9:55 PM 44.6 °F 41.4 °F 44.6 °F 100% 30.29 in 8.0 mi East 5.8 mph - N/A   Clear
10:15 PM 46.4 °F - 46.4 °F 100% 30.28 in 8.0 mi Calm Calm - N/A   Clear
10:35 PM 46.4 °F - 46.4 °F 100% 30.29 in 8.0 mi Calm Calm - N/A   Clear
10:55 PM 44.6 °F 43.1 °F 44.6 °F 100% 30.29 in 5.0 mi WSW 3.5 mph - N/A   Clear
11:15 PM 44.6 °F 41.4 °F 44.6 °F 100% 30.28 in 6.0 mi South 5.8 mph - N/A   Clear
11:35 PM 44.6 °F 43.1 °F 44.6 °F 100% 30.28 in 5.0 mi NW 3.5 mph - N/A   Clear
11:55 PM 41.0 °F 37.1 °F 41.0 °F 100% 30.28 in 0.2 mi ENE 5.8 mph - N/A Fog Fog